DW6451 Weather Reports


Display with metric or nautical units.
time (UTC)temp
F
wind
direction
speed
MPH
gust
MPH
rain 1hr
in
rain 24hr
in
rain mn
in
humidity
%
barometer
mb
20260505124507 36 294 3.0 10.0 0.00 0.00 0.00 70 1006.8
20260505123115 36 277 2.0 9.0 0.00 0.00 0.00 72 1006.6
20260505121555 36 334 2.0 8.0 0.00 0.00 0.00 71 1006.3
20260505120050 36 261 1.0 4.0 0.00 0.00 0.00 73 1006.1
20260505114609 36 253 4.0 12.0 0.00 0.00 0.00 73 1005.8
20260505113002 37 227 2.0 9.0 0.00 0.00 0.00 73 1005.7
20260505111609 37 246 2.0 10.0 0.00 0.00 0.00 73 1005.4
20260505101548 38 326 3.0 6.0 0.00 0.00 0.00 75 1004.7
20260505100048 38 277 1.0 6.0 0.00 0.00 0.00 74 1004.6
20260505094547 39 348 1.0 8.0 0.00 0.00 0.00 72 1004.5
20260505093041 39 285 2.0 6.0 0.00 0.00 0.00 71 1004.2
20260505091538 39 344 2.0 10.0 0.00 0.00 0.00 70 1004.1
20260505090042 39 327 1.0 7.0 0.00 0.00 0.00 70 1003.9
20260505084535 39 292 0.0 5.0 0.00 0.00 0.00 71 1003.7
20260505083041 39 312 1.0 5.0 0.00 0.00 0.00 70 1003.7
20260505081534 39 292 1.0 6.0 0.00 0.00 0.00 70 1003.7
20260505080036 39 264 1.0 6.0 0.00 0.00 0.00 69 1003.5
20260505074526 40 206 2.0 7.0 0.00 0.00 0.00 67 1003.4
20260505073024 40 302 2.0 7.0 0.00 0.00 0.00 66 1003.4
20260505071521 41 346 3.0 9.0 0.00 0.00 0.00 64 1003.3
20260505070018 41 276 2.0 6.0 0.00 0.00 0.00 64 1003.4
20260505064514 42 309 1.0 6.0 0.00 0.00 0.00 64 1003.3
20260505063012 42 319 1.0 7.0 0.00 0.00 0.00 64 1003.2
20260505061518 42 344 1.0 9.0 0.00 0.00 0.00 64 1003.2
20260505060008 42 329 2.0 7.0 0.00 0.00 0.00 64 1003.2
20260505054506 43 323 2.0 8.0 0.00 0.00 0.00 63 1003.1
20260505053003 43 304 2.0 9.0 0.00 0.00 0.00 64 1003.0
20260505051601 43 271 1.0 7.0 0.00 0.00 0.00 62 1003.0
20260505041610 44 289 2.0 8.0 0.00 0.00 0.00 56 1002.6
20260505040049 44 315 2.0 7.0 0.00 0.00 0.00 54 1002.5
20260505034548 44 346 3.0 10.0 0.00 0.00 0.00 53 1002.4
20260505033045 45 311 3.0 9.0 0.00 0.00 0.00 54 1002.4
20260505031541 45 325 3.0 7.0 0.00 0.00 0.00 53 1002.3
20260505030040 45 340 3.0 9.0 0.00 0.00 0.00 53 1002.1
20260505024544 45 274 1.0 5.0 0.00 0.00 0.00 52 1001.9
20260505023044 45 254 1.0 4.0 0.00 0.00 0.00 52 1001.9
20260505021540 45 274 1.0 5.0 0.00 0.00 0.00 53 1001.8
20260505020033 45 273 0.0 5.0 0.00 0.00 0.00 53 1001.6
20260505014536 45 306 3.0 9.0 0.00 0.00 0.00 51 1001.4
20260505013023 46 327 4.0 12.0 0.00 0.00 0.00 52 1001.3
20260505011518 46 306 3.0 11.0 0.00 0.00 0.00 54 1001.2
20260505010015 47 292 5.0 14.0 0.00 0.00 0.00 55 1000.9
20260505004515 47 325 4.0 12.0 0.00 0.00 0.00 56 1000.7
20260505003013 47 347 3.0 12.0 0.00 0.00 0.00 55 1000.5
20260505001505 48 311 3.0 12.0 0.00 0.00 0.00 54 1000.3
20260505000004 49 319 3.0 13.0 0.00 0.00 0.00 55 1000.1
20260504234634 50 248 6.0 15.0 0.00 0.00 0.00 52 999.9
20260504233057 50 340 2.0 12.0 0.00 0.00 0.00 54 999.5
20260504231602 50 332 4.0 11.0 0.00 0.00 0.00 52 999.5
20260504230050 52 320 3.0 12.0 0.00 0.00 0.00 51 999.3
20260504224548 52 324 3.0 13.0 0.00 0.00 0.00 50 999.2
20260504223045 53 237 4.0 11.0 0.00 0.00 0.00 50 999.0
20260504221548 53 293 4.0 12.0 0.00 0.00 0.00 49 998.6
20260504220041 53 235 4.0 12.0 0.00 0.00 0.00 47 998.5
20260504214539 53 240 4.0 12.0 0.00 0.00 0.00 47 998.3
20260504213037 54 316 6.0 18.0 0.00 0.00 0.00 45 998.0
20260504211537 54 242 5.0 15.0 0.00 0.00 0.00 46 997.8
20260504210050 55 253 5.0 21.0 0.00 0.00 0.00 45 997.7
20260504204531 55 279 5.0 17.0 0.00 0.00 0.00 48 997.2
20260504203033 56 281 5.0 15.0 0.00 0.00 0.00 46 997.0
20260504201529 56 330 5.0 17.0 0.00 0.00 0.00 45 996.6
20260504200028 56 310 3.0 15.0 0.00 0.00 0.00 48 996.5
20260504194541 57 282 6.0 16.0 0.00 0.00 0.00 47 996.2
20260504193029 57 308 5.0 15.0 0.00 0.00 0.00 45 995.9
20260504191532 57 261 6.0 12.0 0.00 0.00 0.00 47 995.8
20260504190031 57 335 5.0 14.0 0.00 0.00 0.00 48 995.6
20260504184533 57 92 4.0 15.0 0.00 0.00 0.00 54 995.4
20260504183025 56 328 5.0 14.0 0.00 0.00 0.00 50 995.2
20260504181524 57 239 6.0 12.0 0.00 0.00 0.00 50 995.0
20260504180026 57 306 5.0 17.0 0.00 0.00 0.00 51 994.7
20260504174523 57 285 6.0 14.0 0.00 0.00 0.00 51 994.4
20260504173022 56 309 5.0 16.0 0.00 0.00 0.00 50 994.3
20260504171524 58 355 6.0 14.0 0.00 0.00 0.00 48 994.0